This is the latest recevied weather packets stored in our database for station/object KJ4YLO. If no packets are shown the sender has not sent any weather packets the latest 1 day(s).
| Time | Temp. | Humidity | Pressure | Rain* | Wind** | Luminosity | Snow |
|---|---|---|---|---|---|---|---|
| 1778108028 | 18.33° C | 90% | 1014.5 hPa | 12.7 mm | - | 2 W/m² | - |
| 1778105905 | 20.56° C | 78% | 1014.1 hPa | 0 mm | - | 0 W/m² | - |
| 1778105602 | 20.56° C | 80% | 1013.1 hPa | 0 mm | - | 4 W/m² | - |
| 1778102568 | 21.67° C | 78% | 1013.5 hPa | 0 mm | - | 44 W/m² | - |
| 1778101960 | 21.67° C | 77% | 1013.8 hPa | 0 mm | - | 26 W/m² | - |
| 1778099530 | 22.22° C | 75% | 1014.5 hPa | 0 mm | - | 59 W/m² | - |
| 1778099228 | 22.22° C | 74% | 1014.8 hPa | 0 mm | - | 58 W/m² | - |
| 1778098621 | 22.78° C | 74% | 1014.5 hPa | 0 mm | - | 75 W/m² | - |
| 1778095285 | 23.89° C | 66% | 1014.8 hPa | 0 mm | - | 190 W/m² | - |
| 1778093163 | 23.33° C | 69% | 1015.5 hPa | 0 mm | - | 329 W/m² | - |
| 1778092556 | 22.78° C | 72% | 1016.3 hPa | 0 mm | - | 204 W/m² | - |
| 1778089828 | 21.11° C | 77% | 1015.5 hPa | 0 mm | - | 207 W/m² | - |
| 1778089527 | 21.11° C | 78% | 1015.5 hPa | 0 mm | - | 602 W/m² | - |
| 1778086499 | 18.89° C | 87% | 1016.3 hPa | 0 mm | - | 492 W/m² | - |
| 1778085891 | 18.89° C | 89% | 1015.9 hPa | 1.27 mm | - | 456 W/m² | - |
| 1778085589 | 18.33° C | 87% | 1016.9 hPa | 1.27 mm | - | 209 W/m² | - |
| 1778084676 | 18.33° C | 83% | 1017.3 hPa | 1.78 mm | - | 164 W/m² | - |
| 1778083158 | 19.44° C | 77% | 1017.3 hPa | 0 mm | - | 47 W/m² | - |
| 1778082855 | 19.44° C | 76% | 1017.3 hPa | 0 mm | - | 44 W/m² | - |
| 1778081737 | 19.44° C | 72% | 1016.6 hPa | 0 mm | - | 123 W/m² | - |
| 1778080527 | 19.44° C | 66% | 1016.3 hPa | 0 mm | - | 152 W/m² | - |
| 1778080224 | 20° C | 67% | 1016.3 hPa | 0 mm | - | 126 W/m² | - |
| 1778079314 | 18.89° C | 69% | 1016.3 hPa | 0 mm | - | 149 W/m² | - |
| 1778078103 | 18.89° C | 69% | 1015.9 hPa | 0 mm | - | 111 W/m² | - |
| 1778075379 | 18.89° C | 68% | 1015.9 hPa | 0 mm | - | 60 W/m² | - |
* Rain latest hour (hover to see other rain measurements)
** Current wind speed in m/s (hover to see current wind gust speed)